www.pogodaiklimat.ru

Погода и климат >> Архив погоды >> Дания >> Абед


ПОГОДА в Абеде

  • Прогноз погоды в Абеде
  • Монитор погоды в Абеде

АРХИВ ПОГОДЫ в Абеде

Время (UTC), дата Ветер
(напр.,м/с)
 
Видим.   Явления Облачность Т
(С)
Тd
(С)
f
(%)
Тe
(С)
Тes
(С)
Комфортность P
(гПа)
Po
(гПа)
Тmin
(С)
Tmax
(С)
R
(мм)
R24
(мм)
S
(см)
01 11.09 З 4 30 км ясно +13.8 +12.2 90 +12 +12 1017.1 1016.0
02 11.09 ЮЗ 3 24 км ясно +12.6 +11.8 95 +11 +11 1017.4 1016.3
03 11.09 ЮЗ 3 30 км ясно +12.4 +11.4 94 +11 +11 1017.3 1016.2
04 11.09 ЮЗ 3 28 км 1/1 700 м
[]
+12.6 +11.7 94 +11 +11 1017.6 1016.5
05 11.09 ЮЗ 3 23 км ясно +12.8 +12.1 96 +11 +11 1017.8 1016.7
06 11.09 ЮЗ 4 24 км ясно +13.8 +12.5 92 +12 +12 1018.0 1016.9 +12.1 +15.4
07 11.09 ЮЗ 7 30 км ясно +14.7 +12.3 86 +13 +13 1018.2 1017.1
08 11.09 ЮЗ 8 21 км 1/1 420 м
[]
+15.1 +12.6 85 +13 +14 1018.4 1017.3
09 11.09 ЮЗ 8 21 км ясно +15.9 +12.3 79 +14 +15 1018.2 1017.1
10 11.09 Ю 9 20 км ясно +16.8 +11.9 73 +15 +16 1018.0 1016.9
11 11.09 Ю 9 30 км 1/1 1500 м
[]
+16.9 +11.1 69 +15 +16 1017.9 1016.8
12 11.09 Ю 10 30 км 1/0
[]
+18.3 +10.9 62 +17 +18 1017.3 1016.2
13 11.09 Ю 8 40 км 1/0
[]
+18.2 +10.9 62 +17 +19 1017.2 1016.1
14 11.09 Ю 9 40 км 1/0
[]
+18.4 +10.9 62 +18 +18 1016.8 1015.7
15 11.09 ЮЗ 7 30 км морось {дождь} 9/9 900 м
[]
+17.7 +12.1 70 +17 +17 1016.6 1015.5 0.1
16 11.09 ЮЗ 8 24 км слаб. ливневой дождь 9/9 1410 м
[]
+16.9 +12.4 75 +16 +16 1016.6 1015.5
17 11.09 ЮЗ 8 8000 м слаб. дождь 9/9 840 м
[]
+15.2 +12.6 84 +13 +13 1016.7 1015.6 0.4
18 11.09 ЮЗ 9
{15}
3900 м слаб. ливневой дождь 9/9 630 м
[]
+14.2 +13.4 95 +12 +12 1016.7 1015.6 +13.8 +18.7 1
19 11.09 ЮЗ 9 9000 м морось {ливн. осадки, дождь} 9/9 270 м
[]
+14.5 +13.4 93 +12 +12 1016.6 1015.5 0.3
20 11.09 ЮЗ 9 40 км в посл. час морось {ливн. осадки} 9/9 330 м
[]
+14.5 +13.2 92 +12 +12 1016.7 1015.6 0.1
21 11.09 ЮЗ 8
{14}
16 км морось {ливн. осадки, дождь} 9/9 210 м
[]
+14.3 +13.5 95 +12 +12 1016.9 1015.8 0.5
22 11.09 ЮЗ 7 10 км слаб. ливневой дождь {морось} 9/9 210 м
[]
+14.7 +14.0 96 +13 +13 1017.4 1016.3
23 11.09 ЮЗ 5 21 км в посл. час морось {ливн. осадки} 9/9 180 м
[]
+15.2 +14.2 94 +14 +14 1017.9 1016.8
00 12.09 ЮЗ 5
{14}
18 км {ливн. осадки, дождь} 9/9 400 м
[]
+15.1 +13.8 92 +14 +14 1018.6 1017.5 0.0
01 12.09 ЮЗ 3 14 км ясно +13.8 +12.6 92 +13 +13 1019.4 1018.3
02 12.09 ЮЗ 3 13 км ясно +12.6 +12.0 96 +11 +11 1019.8 1018.6
03 12.09 ЮЗ 3 н/о 6/6 1050 м
[]
+13.0 +12.4 96 +12 +12 1020.2 1019.1
04 12.09 ЮЗ 4 16 км 1/1 700 м
[]
+14.0 +12.7 92 +13 +13 1020.6 1019.5
05 12.09 ЮЗ 3 15 км ясно +13.1 +12.1 94 +12 +12 1021.3 1020.2
06 12.09 ЮЗ 2 19 км 1/1 1500 м
[]
+14.2 +12.8 91 +14 +14 1022.0 1020.9 +12.3 +15.3
07 12.09 ЮЗ 5 20 км ясно +16.1 +13.7 86 +15 +16 1022.4 1021.3
08 12.09 ЮЗ 6 29 км 6/6 1500 м
[]
+17.1 +13.9 81 +16 +17 1022.8 1021.7
09 12.09 ЮЗ 7 25 км 4/4 360 м
[]
+16.9 +14.2 84 +16 +17 1023.5 1022.4
10 12.09 ЮЗ 7 22 км 9/9 420 м
[]
+17.5 +14.2 81 +17 +17 1023.7 1022.6
11 12.09 ЮЗ 7 24 км 9/9 420 м
[]
+17.7 +14.0 79 +17 +17 1024.1 1023.0
12 12.09 ЮЗ 8 27 км 6/6 570 м
[]
+18.3 +13.5 74 +18 +19 1023.9 1022.9
13 12.09 ЮЗ 8 29 км 9/9 1500 м
[]
+18.2 +13.4 74 +18 +18 1024.2 1023.1
14 12.09 ЮЗ 8 28 км 4/4 720 м
[]
+18.8 +13.5 71 +19 +19 1024.1 1023.0
15 12.09 ЮЗ 6 30 км 6/6 1500 м
[]
+19.0 +13.5 70 +20 +20 1024.0 1022.9
16 12.09 З 6 26 км 1/1 840 м
[]
+18.3 +13.3 73 +18 +19 1024.0 1022.9
17 12.09 ЮЗ 4 28 км 1/1 1140 м
[]
+17.2 +13.0 76 +17 +17 1024.0 1022.9
18 12.09 ЮЗ 4 23 км 1/1 1080 м
[]
+16.2 +13.2 82 +15 +15 1024.2 1023.1 +14.1 +19.2
19 12.09 ЮЗ 4 19 км ясно +15.1 +13.4 90 +14 +14 1024.3 1023.2
20 12.09 ЮЗ 5 21 км 6/0
[]
+15.7 +13.0 84 +15 +15 1024.2 1023.1
21 12.09 ЮЗ 5 21 км 9/9 1080 м
[]
+15.9 +13.2 84 +15 +15 1023.8 1022.7
22 12.09 ЮЗ 5 20 км 9/0
[]
+15.5 +13.4 87 +14 +14 1023.1 1022.0
23 12.09 ЮЗ 6 20 км 10/10 1440 м
[]
+16.2 +13.6 85 +15 +15 1022.8 1021.7
00 13.09 ЮЗ 6 19 км 9/9 1170 м
[]
+16.1 +13.9 87 +15 +15 1022.4 1021.3
01 13.09 ЮЗ 6 20 км 9/9 960 м
[]
+16.2 +13.9 86 +15 +15 1021.6 1020.5
02 13.09 ЮЗ 7 3200 м слаб. дождь {морось} 9/9 180 м
[]
+15.7 +15.1 96 +14 +14 1020.9 1019.8 0.8
03 13.09 ЮЗ 7 15 км в посл. час морось {ливн. осадки, дождь} 10/10 270 м
[]
+16.4 +15.3 93 +15 +15 1020.4 1019.3 1
04 13.09 ЮЗ 9 5000 м дымка 10/10 180 м
[]
+16.5 +15.8 96 +15 +15 1020.4 1019.3
05 13.09 СЗ 7 23 км слаб. ливневой дождь 9/9 150 м
[]
+14.9 +13.7 93 +13 +13 1021.9 1020.8 1
06 13.09 СЗ 6
{14}
40 км слаб. ливневой дождь 6/6 400 м
[]
+14.4 +12.8 90 +13 +13 1023.2 1022.1 +14.3 +16.6 1
07 13.09 СЗ 5 40 км {ливн. осадки} 6/6 540 м
[]
+14.9 +12.6 86 +13 +14 1024.3 1023.2
08 13.09 СЗ 6 40 км 1/1 600 м
[]
+15.2 +11.2 77 +14 +15 1025.5 1024.4
09 13.09 СЗ 6 40 км {ливн. осадки} 1/1 800 м
[]
+16.0 +9.9 67 +15 +17 1026.8 1025.7 0.0
10 13.09 СЗ 7 29 км 4/4 1020 м
[]
+16.0 +8.8 62 +15 +16 1027.5 1026.4
11 13.09 З 7 30 км 4/4 1110 м
[]
+16.9 +8.7 58 +16 +17 1028.0 1026.9
12 13.09 З 6
{12}
28 км {ливн. осадки} 6/6 1230 м
[]
+17.0 +8.3 57 +16 +18 1028.7 1027.6
13 13.09 З 5 30 км 4/4 1300 м
[]
+17.7 +7.5 51 +17 +19 1029.1 1028.0
14 13.09 З 7 40 км 1/1 1500 м
[]
+17.8 +5.9 46 +17 +18 1029.5 1028.4
15 13.09 З 6
{11}
30 км 1/1 1500 м
[]
+17.2 +7.1 51 +16 +17 1029.9 1028.8
16 13.09 З 6 40 км ясно +16.6 +6.0 50 +16 +16 1030.0 1028.9
17 13.09 З 4 40 км ясно +15.5 +7.9 61 +15 +15 1030.5 1029.4
18 13.09 З 4
{11}
30 км ясно +14.1 +9.0 71 +13 +13 1031.1 1030.0 +14.1 +18.2
19 13.09 З 4 30 км ясно +13.6 +8.8 73 +12 +12 1031.4 1030.3
20 13.09 З 3 30 км ясно +12.9 +8.2 73 +12 +12 1031.9 1030.8
21 13.09 З 2 30 км ясно +11.9 +7.9 76 +11 +11 1032.6 1031.5
22 13.09 З 2 25 км ясно +11.7 +8.5 81 +11 +11 1032.9 1031.8
23 13.09 З 2 23 км ясно +11.4 +8.3 81 +10 +10 1033.1 1032.0
00 14.09 З 3 23 км ясно +10.9 +7.9 82 +9 +9 1033.0 1031.9
01 14.09 З 3 23 км ясно +10.8 +7.9 82 +9 +9 1033.1 1031.9
02 14.09 З 2 24 км ясно +10.7 +8.0 83 +9 +9 1033.2 1032.1
03 14.09 З 2 23 км ясно +10.4 +8.1 86 +9 +9 1033.0 1031.9
04 14.09 ЮЗ 2 21 км ясно +7.7 +6.3 91 +6 +6 1033.0 1031.9
05 14.09 Ю 2 18 км ясно +8.0 +7.4 96 +6 +6 1033.2 1032.0
06 14.09 ЮЗ 2 21 км ясно +9.9 +9.1 95 +8 +9 1033.3 1032.2 +7.2 +14.2
07 14.09 З 3 23 км ясно +13.5 +10.2 80 +12 +14 1033.6 1032.5
08 14.09 З 4 25 км ясно +14.8 +9.4 70 +14 +16 1033.6 1032.5
09 14.09 З 4 28 км 1/1 800 м
[]
+15.4 +9.2 67 +14 +18 1033.5 1032.3
10 14.09 З 5 29 км 4/4 930 м
[]
+16.0 +8.5 61 +15 +18 1033.2 1032.0
11 14.09 З 5 30 км 4/4 1000 м
[]
+16.6 +8.2 58 +16 +19 1032.9 1031.8
12 14.09 З 5 30 км 1/1 1320 м
[]
+16.5 +7.7 56 +16 +19 1032.4 1031.3
13 14.09 З 5 30 км 1/1 1170 м
[]
+17.0 +7.8 55 +16 +19 1031.9 1030.8
14 14.09 ЮЗ 5 35 км 1/1 1020 м
[]
+16.0 +8.2 60 +15 +17 1031.0 1029.9
15 14.09 З 5 35 км ясно +16.7 +7.7 55 +16 +17 1030.2 1029.1
16 14.09 ЮЗ 5 50 км ясно +16.0 +8.3 60 +15 +16 1029.6 1028.4
17 14.09 ЮЗ 4 45 км ясно +15.3 +8.2 63 +15 +15 1028.8 1027.7
18 14.09 ЮЗ 3 45 км ясно +13.5 +8.7 73 +12 +12 1028.5 1027.4 +9.9 +17.4
19 14.09 ЮЗ 3 45 км ясно +11.8 +9.2 84 +10 +10 1027.6 1026.5
20 14.09 ЮЗ 5 45 км ясно +13.2 +8.9 75 +11 +11 1026.8 1025.7
21 14.09 ЮЗ 5 45 км ясно +13.3 +9.0 75 +11 +11 1025.5 1024.4
22 14.09 ЮЗ 5 40 км ясно +13.8 +9.4 75 +12 +12 1025.0 1023.9
23 14.09 ЮЗ 5 35 км ясно +13.1 +9.7 80 +11 +11 1023.7 1022.6
00 15.09 ЮЗ 7 35 км ясно +13.7 +9.9 78 +11 +11 1022.5 1021.4
01 15.09 ЮЗ 6 35 км ясно +13.4 +10.1 80 +11 +11 1021.6 1020.5
02 15.09 ЮЗ 8 30 км 9/0
[]
+14.3 +9.7 74 +12 +12 1020.1 1019.0
03 15.09 ЮЗ 8 35 км ясно +14.2 +9.4 73 +12 +12 1019.1 1018.0
04 15.09 ЮЗ 8 35 км ясно +14.1 +9.0 71 +12 +12 1017.6 1016.5
05 15.09 ЮЗ 8 н/о 6/0
[]
+14.1 +8.8 70 +12 +12 1016.9 1015.8
06 15.09 ЮЗ 8 30 км ясно +14.1 +9.5 74 +12 +12 1015.8 1014.7 +11.1 +14.4
07 15.09 ЮЗ 10 28 км 1/0
[]
+15.2 +10.8 75 +13 +13 1015.1 1014.0
08 15.09 ЮЗ 9 25 км 9/9 840 м
[]
+15.6 +12.0 79 +14 +14 1014.8 1013.8
09 15.09 ЮЗ 9
{16}
19 км 9/9 400 м
[]
+15.9 +13.1 83 +14 +14 1014.6 1013.5
10 15.09 З 9 18 км 9/9 300 м
[]
+16.3 +14.2 87 +15 +15 1014.8 1013.7
11 15.09 З 8 26 км 9/9 330 м
[]
+16.9 +14.2 84 +16 +16 1014.4 1013.3
12 15.09 З 6
{16}
28 км слаб. ливневой дождь 9/9 450 м
[]
+16.2 +13.3 83 +15 +15 1015.0 1013.9 0.0
13 15.09 З 8 30 км {ливн. осадки} 6/6 720 м
[]
+17.4 +11.8 70 +16 +17 1014.7 1013.6
14 15.09 З 9 24 км 4/4 800 м
[]
+17.4 +10.1 62 +16 +16 1014.8 1013.7
15 15.09 З 9-14
{17}
17 км {ливн. осадки} 6/0
[]
+16.2 +7.6 57 +15 +15 1015.3 1014.2 0.0
16 15.09 З 8 18 км 9/0
[]
+15.4 +7.4 59 +14 +14 1015.4 1014.3
17 15.09 З 7 16 км 9/9 960 м
[]
+14.9 +8.8 67 +13 +13 1015.5 1014.4
18 15.09 З 6
{17}
14 км {ливн. осадки} 1/0
[]
+13.9 +7.7 66 +12 +12 1016.1 1015.0 +13.9 +18.0
19 15.09 З 5 13 км 9/9 870 м
[]
+14.0 +8.6 70 +12 +12 1016.3 1015.2
20 15.09 З 6 13 км 1/1 1320 м
[]
+13.1 +7.0 66 +11 +11 1016.2 1015.1
21 15.09 З 6
{12}
12 км ясно +12.9 +7.6 70 +11 +11 1016.2 1015.1
22 15.09 З 5 13 км 1/1 1110 м
[]
+12.8 +7.1 68 +11 +11 1016.5 1015.4
23 15.09 З 6 13 км 1/1 1020 м
[]
+12.5 +7.5 72 +10 +10 1016.6 1015.5
00 16.09 З 4
{12}
13 км 1/1 1020 м
[]
+12.0 +7.5 74 +10 +10 1016.8 1015.7
01 16.09 З 5 16 км ясно +12.5 +6.6 67 +10 +10 1016.8 1015.7
02 16.09 З 4 15 км ясно +12.1 +6.4 68 +10 +10 1016.9 1015.7
03 16.09 З 3 16 км ясно +11.6 +6.4 70 +10 +10 1016.7 1015.5
04 16.09 З 5 13 км 1/1 1000 м
[]
+11.5 +7.5 76 +9 +9 1016.5 1015.4
05 16.09 З 4 16 км ясно +11.3 +5.8 69 +9 +9 1016.2 1015.1
06 16.09 З 4 17 км 1/1 1500 м
[]
+12.2 +6.0 66 +10 +11 1016.1 1015.0 +11.0 +14.1
07 16.09 З 4 19 км 6/6 1200 м
[]
+13.2 +7.0 66 +12 +12 1016.5 1015.4
08 16.09 З 5 21 км 9/9 1230 м
[]
+13.5 +6.6 63 +12 +12 1016.4 1015.3
09 16.09 З 7
{11}
23 км 6/6 1410 м
[]
+14.2 +6.0 58 +12 +13 1016.4 1015.3
10 16.09 З 8 22 км 1/1 1500 м
[]
+14.4 +5.8 56 +12 +13 1016.1 1015.0
11 16.09 З 7 24 км 1/1 1050 м
[]
+15.0 +5.0 51 +13 +15 1016.2 1015.1
12 16.09 З 8-13
{13}
29 км ясно +15.6 +5.0 49 +14 +15 1015.9 1014.8
13 16.09 З 8 27 км 1/1 1350 м
[]
+16.2 +5.3 48 +15 +16 1015.6 1014.5
14 16.09 З 7 29 км 4/4 1200 м
[]
+15.5 +6.2 54 +14 +15 1015.7 1014.6
15 16.09 З 7
{14}
35 км ясно +15.3 +6.9 57 +14 +14 1015.5 1014.4
16 16.09 З 8 35 км ясно +14.8 +6.6 58 +13 +13 1015.4 1014.3
17 16.09 З 6 40 км 4/4 1230 м
[]
+13.8 +7.0 64 +12 +12 1015.4 1014.3
18 16.09 З 4
{14}
35 км ясно +12.5 +7.0 69 +11 +11 1015.6 1014.4 +12.2 +16.6
19 16.09 З 4 35 км ясно +12.5 +7.2 70 +11 +11 1015.6 1014.5
20 16.09 З 5 35 км 10/10 1500 м
[]
+12.9 +7.3 69 +11 +11 1015.5 1014.4
21 16.09 З 3 30 км 4/4 1500 м
[]
+12.0 +7.7 75 +10 +10 1015.2 1014.1
22 16.09 З 3 30 км ясно +11.6 +7.5 76 +10 +10 1014.8 1013.6
23 16.09 З 3 29 км 1/1 1500 м
[]
+11.1 +8.1 82 +9 +9 1014.3 1013.2
00 17.09 ЮЗ 4 35 км 9/9 1500 м
[]
+11.9 +7.9 76 +10 +10 1014.0 1012.8
01 17.09 З 6 35 км 9/9 1500 м
[]
+12.3 +7.8 74 +10 +10 1013.4 1012.3
02 17.09 З 5 40 км в посл. час дождь {ливн. осадки} 4/4 1500 м
[]
+11.1 +8.4 83 +8 +8 1012.9 1011.8 0.2
03 17.09 З 5 40 км {ливн. осадки, дождь} 4/4 1500 м
[]
+11.2 +8.1 81 +9 +9 1012.3 1011.2 0.2
04 17.09 З 5 35 км 9/9 1500 м
[]
+11.4 +8.5 82 +9 +9 1011.4 1010.3
05 17.09 З 5 8000 м дождь {морось} 9/9 800 м
[]
+11.2 +8.8 85 +8 +8 1011.3 1010.2 0.4
06 17.09 З 5
{12}
30 км в посл. час дождь {ливн. осадки} 4/4 1500 м
[]
+10.5 +8.2 86 +8 +8 1011.1 1010.0 +10.0 +13.1 0.9
07 17.09 З 6 24 км 1/0 2000 м
[]
+11.7 +7.4 75 +9 +10 1010.8 1009.7
08 17.09 З 7 30 км 1/0 2000 м
[]
+12.2 +5.8 65 +10 +11 1010.6 1009.5
09 17.09 З 8-14
{14}
25 км 1/1 1500 м
[]
+13.0 +4.9 58 +10 +11 1010.2 1009.1
10 17.09 З 6 30 км слаб. ливневой дождь 6/6 1080 м
[]
+11.0 +6.0 71 +8 +9 1010.1 1009.0 0.1
11 17.09 З 8 35 км {ливн. осадки} 4/4 1000 м
[]
+13.2 +5.9 61 +11 +12 1009.6 1008.5
12 17.09 З 7-12
{18}
18 км слаб. ливневой дождь 6/6 900 м
[]
+10.0 +5.5 74 +6 +7 1009.6 1008.5 4
13 17.09 З 9 9000 м слаб. ливневой дождь 6/6 870 м
[]
+8.9 +5.4 79 +4 +5 1009.7 1008.6 0.1
14 17.09 СЗ 7 16 км слаб. ливневой дождь 4/4 1140 м
[]
+11.6 +6.1 69 +9 +9 1009.5 1008.4
15 17.09 З 8-14
{16}
35 км {ливн. осадки} 4/4 1470 м
[]
+12.9 +4.6 57 +10 +10 1009.6 1008.5 0.1
16 17.09 З 8 35 км 1/1 1410 м
[]
+11.5 +4.9 64 +8 +8 1010.0 1008.9
17 17.09 З 8 35 км слаб. ливневой дождь 4/4 870 м
[]
+11.4 +5.2 66 +8 +8 1010.6 1009.5
18 17.09 З 6-11
{16}
45 км в посл. час дождь {ливн. осадки} 1/1 1200 м
[]
+10.3 +4.3 66 +7 +7 1011.5 1010.4 +8.8 +13.7 0.0
19 17.09 СЗ 6 35 км ясно +10.1 +5.0 71 +7 +7 1012.5 1011.4
20 17.09 СЗ 6 35 км ясно +10.1 +5.1 71 +7 +7 1013.6 1012.5
21 17.09 СЗ 5
{11}
35 км ясно +9.8 +5.1 73 +7 +7 1014.3 1013.2
22 17.09 СЗ 5 40 км ясно +9.8 +5.1 73 +7 +7 1015.2 1014.1
23 17.09 З 4 30 км ясно +9.4 +5.2 75 +7 +7 1015.8 1014.7
00 18.09 З 4
{11}
30 км ясно +8.8 +5.5 80 +6 +6 1016.2 1015.1

 

Местоположение метеостанции Абед (Дания): широта 54.83 долгота 11.33 высота над уровнем моря 9 м.

В архиве по умолчанию представлена погода в Абеде за последнюю неделю. Архивные данные за месяц целиком и за предыдущие месяцы, начиная с января 2011 года, Вы можете получить, выбрав интересующий диапазон дат из раскрывающегося списка и нажав кнопку "Ввод!".


*Определитесь, кто Вы:
робот инопланетянин человек

Внимание! Время в таблицах - всемирное. Для получения местного времени необходимо прибавить поправку, которая равна 1 ч.

Смотрите также архив погоды в соседних городах и на ближайших метеорологических станциях:

Погода в Ланго (Дания) (21 км)
Погода в Мариенлойхте (Германия) (37 км)
Погода в Вестермаркельсдорфе (Германия) (37 км)
Погода в Омо (Дания) (40 км)
Погода в Тысофте (Дания) (47 км)
Погода в Гедсер Одде (Дания) (50 км)
Погода в Тосинге (Дания) (53 км)
Погода в Бранделеве (Дания) (54 км)
Погода в Флаккебэрге (Дания) (55 км)
Погода в Виндебаеке (Дания) (55 км)

Пояснения к столбцам:

Ветер - указаны скорость ветра в м/с - средняя за 10 мин, порывы в срок и между сроками (в фигурных скобках) и направление, откуда дует ветер: С - северный, СВ - северо-восточный, В - восточный, ЮВ - юго-восточный, Ю - южный, ЮЗ - юго-западный, З - западный, СЗ - северо-западный.
Видимость - горизонтальная дальность видимости в метрах или километрах. При видимости от 1 до 10 км при отсутствии осадков обычно наблюдается дымка, при ухудшении видимости до 1 км и менее - туман. В сухую погоду видимость может ухудшаться дымом, пылью или мглою.
Явления - указаны атмосферные явления, наблюдавшиеся в срок или в последний час перед сроком; фигурными скобками обозначены явления, наблюдавшиеся между сроками (за 1-3 часа до срока); квадратными скобками обозначены град или гололедные отложения с указанием их диаметра в мм.
Облачность - указаны через наклонную черту общая и нижняя облачность в баллах и высота нижней границы облаков в метрах; квадратными скобками обозначены формы облаков: Ci - перистые, Cs - перисто-слоистые, Cc - перисто-кучевые, Ac - высококучевые, As - высокослоистые, Sc - слоисто-кучевые, Ns - слоисто-дождевые, Cu - кучевые, Cb - кучево-дождевые. Подробнее классификацию облаков см. в Атласе облаков (PDF).
T - Температура воздуха - температура, измеренная на высоте 2 м над землей.
Td - Температура точки росы - температура, при понижении до которой содержащийся в воздухе водяной пар достигнет насыщения.
f - Относительная влажность воздуха - влажноcть воздуха, измеренная на высоте 2 м над землей.
Te - Эффективная температура - температура, которую ощущает одетый по сезону человек в тени. Характеристика душности погоды. При расчете учитывается влияние влажности воздуха и скорости ветра на теплоощущения человека.
Tes - Эффективная температура на солнце - температура, которую ощущает человек, с поправкой на солнечный нагрев. Характеристика знойности погоды. Зависит от высоты солнца над горизонтом, облачности и скорости ветра. Ночью, в пасмурную погоду, а также при ветре 12 м/с и более поправка равна нулю.
P - Атмосферное давление - приведенное к уровню моря атмосферное давление.
Po - Атмосферное давление - измеренное на уровне метеостанции атмосферное давление.
Tmin - Минимальная температура - минимум температуры воздуха на высоте 2 м над землей.
Tmax - Максимальная температура - максимум температуры воздуха на высоте 2 м над землей.
R - Количество осадков - Количество выпавших осадков за период времени, мм. При наведении курсора мыши на число - период времени, за который выпало указанное количество осадков.
R24 - Количество осадков - Количество выпавших осадков за 24 часа, мм.
S - Снежный покров - Высота снежного покрова, см. При наведении курсора мыши на число - состояние снежного покрова и степень покрытия местности в баллах.